This demonstration page uses our WeatherBlox Daily Observations layout. Learn more.

Left ArrowRight Arrow

38.20091, -84.87328

Hourly Observations for August 17, 2022

Temp ( °F °C ) Dew Point ( °F °C ) Humidity (%) Winds ( mph kmh ) Pressure ( in mb ) Visibility ( mi km ) Precip ( " mm )
12:53 am 00:53 Clear 69 20.6 63 17.2 81 81 N 6 9 29.99 1016 10 16 0.00 0.00
1:53 am 01:53 Mostly Clear 68 20 63 17.2 84 84 NNE 3 6 29.98 1015 10 16 0.00 0.00
2:53 am 02:53 Clear 68 20 63 17.2 84 84 NNE 3 6 29.98 1015 10 16 0.00 0.00
3:53 am 03:53 Clear 66 18.9 62 16.7 87 87 N 3 6 29.97 1015 10 16 0.00 0.00
4:53 am 04:53 Clear 65 18.3 62 16.7 90 90 NNE 3 6 29.97 1015 10 16 0.00 0.00
5:53 am 05:53 Clear 64 17.8 62 16.7 93 93 N 3 6 29.99 1016 10 16 0.00 0.00
6:53 am 06:53 Clear 62 16.7 60 15.6 93 93 Calm 30.01 1016 8 13 0.00 0.00
7:53 am 07:53 Sunny 65 18.3 62 16.7 90 90 Calm 30.02 1017 10 16 0.00 0.00
8:53 am 08:53 Sunny 69 20.6 63 17.2 81 81 VRB 3 6 30.04 1017 10 16 0.00 0.00
9:53 am 09:53 Mostly Sunny 72 22.2 64 17.8 76 76 N 5 7 30.03 1017 10 16 0.00 0.00
10:53 am 10:53 Mostly Cloudy 73 22.8 64 17.8 73 73 N 8 13 30.04 1017 10 16 0.00 0.00
11:10 am 11:10 Mostly Cloudy 74 23.3 64 17.8 71 71 VRB 7 11 30.03 1017 10 16 0.00 0.00
11:53 am 11:53 Partly Cloudy 77 25 64 17.8 64 64 NE 9 15 30.03 1017 10 16 0.00 0.00
12:53 pm 12:53 Mostly Cloudy 78 25.6 64 17.8 62 62 N 6 9 30.03 1017 10 16 0.00 0.00
1:53 pm 13:53 Mostly Sunny 81 27.2 63 17.2 54 54 VRB 5 7 30.02 1017 10 16 0.00 0.00
2:53 pm 14:53 Partly Cloudy 81 27.2 63 17.2 54 54 E 5 7 30.01 1016 10 16 0.00 0.00
3:53 pm 15:53 Mostly Sunny 81 27.2 62 16.7 53 53 E 8 13 30.00 1016 10 16 0.00 0.00
4:53 pm 16:53 Mostly Sunny 82 27.8 61 16.1 49 49 ENE 8 13 29.98 1015 10 16 0.00 0.00
5:53 pm 17:53 Mostly Cloudy 80 26.7 59 15 49 49 N 5 7 29.98 1015 10 16 0.00 0.00
6:53 pm 18:53 Sunny 80 26.7 62 16.7 54 54 NNW 5 7 29.97 1015 10 16 0.00 0.00
7:53 pm 19:53 Sunny 77 25 63 17.2 62 62 NNW 3 6 29.97 1015 10 16 0.00 0.00
8:53 pm 20:53 Clear 70 21.1 64 17.8 81 81 NW 3 6 29.98 1015 10 16 0.00 0.00
9:53 pm 21:53 Clear 67 19.4 63 17.2 87 87 Calm 30.00 1016 10 16 0.00 0.00
10:53 pm 22:53 Clear 67 19.4 63 17.2 87 87 Calm 30.00 1016 10 16 0.00 0.00
11:53 pm 23:53 Mostly Clear 66 18.9 63 17.2 90 90 Calm 30.00 1016 10 16 0.00 0.00

Powered by AerisWeather